Flag for Austria Past Weather in Kirchdorf an der Krems, Upper Austria, Austria — Yesterday and Last 2 Weeks

Now
77 °F

Warm.


Feels Like: 79 °F
Forecast: 60 / 85 °F
Wind: 2 mph from Northwest

Location: Kremsmuenster

Current Time: Jul 29, 2016 at 8:04:21 PM

Latest Report: Jul 29, 2016 at 7:00 PM


Visibility: N/A

Pressure: 29.93 "Hg

Humidity: 54%

Dew Point: 59 °F

Location of Kirchdorf an der KremsLocation

Past Weather in Kirchdorf an der Krems — Graph

°F

Kirchdorf an der Krems Temperature Yesterday

Maximum temperature yesterday: 76 °F (at 5:00 PM)
Minimum temperature yesterday: 64 °F (at 7:00 AM)
Average temperature yesterday: 69 °F

High & Low Weather Summary for the Past Weeks

 TemperatureHumidityPressure
High85 °F (Jul 20, 6:00 PM)93% (Jul 18, 3:00 AM)30.31 "Hg (Jul 18, 3:00 AM)
Low52 °F (Jul 15, 6:00 AM)30% (Jul 20, 5:00 PM)29.89 "Hg (Jul 22, 6:00 PM)
Average69 °F73%30.07 "Hg
* Reported Jul 14 7:00 PM — Jul 29 7:00 PM, Kirchdorf an der Krems, Weather by CustomWeather, © 2016

Note: Actual official high and low records may vary slightly from our data, if they occured in-between our weather recording intervals... More about our weather records

Advertising

Kirchdorf an der Krems Weather History for the Previous 24 Hours

Scroll right to see more
 ConditionsComfort  
Time TempWeatherWind HumidityBarometerVisibility
7:00 PM
Fri, Jul 29
77 °FWarm.2 mph54%29.93 "HgN/A
6:00 PM78 °FWarm.3 mph49%29.94 "HgN/A
5:00 PM79 °FScattered clouds.2 mph48%29.93 "Hg17 mi
4:00 PM79 °FWarm.5 mph46%29.95 "HgN/A
3:00 PM79 °FWarm.6 mph50%29.96 "HgN/A
2:00 PM76 °FMild.5 mph53%29.98 "HgN/A
1:00 PM76 °FMild.5 mph53%29.98 "HgN/A
12:00 PM74 °FMild.6 mph62%30.00 "HgN/A
11:00 AM71 °FPartly sunny.6 mph65%30.02 "Hg17 mi
10:00 AM70 °FMild.6 mph70%30.02 "HgN/A
9:00 AM67 °FMild.3 mph76%30.03 "HgN/A
8:00 AM64 °FPartly sunny.2 mph84%30.03 "Hg16 mi
7:00 AM62 °FOvercast.1 mph87%30.02 "Hg14 mi
6:00 AM61 °FCool.3 mph88%30.02 "HgN/A
5:00 AM62 °FCool.3 mph87%30.01 "HgN/A
4:00 AM62 °FMild.3 mph87%30.01 "HgN/A
3:00 AM63 °FMild.3 mph88%30.01 "HgN/A
2:00 AM64 °FMild.3 mph90%30.01 "HgN/A
1:00 AM65 °FMild.2 mph88%30.01 "HgN/A
12:00 AM66 °FMild.5 mph85%30.01 "HgN/A
11:00 PM
Thu, Jul 28
67 °FMild.3 mph84%30.01 "HgN/A
10:00 PM68 °FSprinkles. Overcast.5 mph80%30.02 "HgN/A
9:00 PM69 °FFog.2 mph78%30.01 "HgN/A
8:00 PM74 °FMild.1 mph59%29.99 "HgN/A
Weather by CustomWeather, © 2016

See weather overviewHow to use our weather pages